McAlester, OK

8:25 PM CST on December 15, 2019 (GMT -0600)
McAlester Regional

Weather History for KMLC - September, 2019

Change the Weather History Date:

Thursday, September 12, 2019

  Actual Average Record
Temperature  
Mean Temperature 83 °F -  
Max Temperature 93 °F 87 °F 100 °F (1982)
Min Temperature 73 °F 65 °F 50 °F (1960)
Cooling Degree Days 18    
Growing Degree Days 33 (Base 50)    
Moisture  
Dew Point 67 °F    
Average Humidity 63    
Maximum Humidity 87    
Minimum Humidity 42    
Precipitation  
Precipitation 0.00 in - - ()
Sea Level Pressure  
Sea Level Pressure 30.04 in    
Wind  
Wind Speed 7 mph (South)    
Max Wind Speed 16 mph    
Max Gust Speed 24 mph    
Visibility 10 miles    
Events      
Averages and records for this station are not official NWS values.
T = Trace of Precipitation, MM = Missing Value Source: NWS Daily Summary

Daily Weather History Graph

Daily Weather History Graph

Search for Another Location

Airport or City:

Astronomy

Sep. 12, 2019 Rise Set
Actual Time 7:03 AM CDT 7:34 PM CDT
Civil Twilight 6:38 AM CDT 7:59 PM CDT
Nautical Twilight 6:08 AM CDT 8:29 PM CDT
Astronomical Twilight 5:37 AM CDT 9:00 PM CDT
Moon 7:14 PM CDT (9/12) 5:31 AM CDT (9/12)
Length of Visible Light 13h 21m
Length of Day
12h 30m
Waxing Gibbous, 98% of the Moon is Illuminated
Sep 12
Waxing Gibbous
Sep 13
Full
Sep 21
Last Quarter
Sep 28
New
Oct 5
First Quarter

Hourly Weather History & Observations

Time (CDT) Temp. Heat Index Dew Point Humidity Pressure Visibility Wind Dir Wind Speed Gust Speed Precip Events Conditions
12:53 AM 79.0 °F - 68.0 °F 69% 30.01 in 10.0 mi Variable 4.6 mph - N/A   Clear
1:53 AM 79.0 °F - 66.9 °F 66% 30.01 in 10.0 mi South 6.9 mph - N/A   Partly Cloudy
2:53 AM 77.0 °F - 68.0 °F 74% 30.01 in 10.0 mi South 4.6 mph - N/A   Mostly Cloudy
3:53 AM 75.9 °F - 68.0 °F 76% 30.01 in 10.0 mi Variable 4.6 mph - N/A   Clear
4:53 AM 75.0 °F - 68.0 °F 79% 30.01 in 10.0 mi North - - N/A   Clear
5:53 AM 73.9 °F - 69.1 °F 85% 30.03 in 10.0 mi South 5.8 mph - N/A   Mostly Cloudy
6:53 AM 73.0 °F - 69.1 °F 87% 30.05 in 10.0 mi South 3.5 mph - N/A   Partly Cloudy
7:53 AM 75.0 °F - 69.1 °F 82% 30.07 in 10.0 mi Variable 4.6 mph - N/A   Clear
8:53 AM 78.1 °F - 70.0 °F 76% 30.09 in 10.0 mi South 9.2 mph - N/A   Clear
9:53 AM 82.0 °F 85.5 °F 69.1 °F 65% 30.10 in 10.0 mi Variable 6.9 mph 19.6 mph N/A   Clear
10:53 AM 84.0 °F 87.8 °F 69.1 °F 61% 30.09 in 10.0 mi SSW 11.5 mph 16.1 mph N/A   Clear
11:53 AM 88.0 °F 91.4 °F 68.0 °F 51% 30.06 in 10.0 mi SSW 16.1 mph 24.2 mph N/A   Clear
12:53 PM 88.0 °F 92.1 °F 69.1 °F 53% 30.06 in 10.0 mi Variable 6.9 mph 18.4 mph N/A   Clear
1:53 PM 91.0 °F 95.6 °F 69.1 °F 48% 30.05 in 10.0 mi South 8.1 mph 21.9 mph N/A   Partly Cloudy
2:53 PM 91.9 °F 95.9 °F 68.0 °F 45% 30.03 in 10.0 mi SSW 11.5 mph - N/A   Scattered Clouds
3:53 PM 93.0 °F 96.4 °F 66.9 °F 42% 30.00 in 10.0 mi SW 11.5 mph 20.7 mph N/A   Partly Cloudy
4:53 PM 91.9 °F 94.5 °F 66.0 °F 42% 29.98 in 10.0 mi South 8.1 mph 17.3 mph N/A   Scattered Clouds
5:53 PM 91.9 °F 94.5 °F 66.0 °F 42% 29.98 in 10.0 mi South 5.8 mph 16.1 mph N/A   Clear
6:53 PM 88.0 °F 89.6 °F 64.9 °F 46% 30.01 in 10.0 mi South 5.8 mph - N/A   Clear
8:53 PM 84.0 °F 85.4 °F 64.0 °F 51% 30.04 in 10.0 mi North - - N/A   Clear
9:53 PM 78.1 °F - 66.9 °F 68% 30.09 in 10.0 mi Calm Calm - N/A   Mostly Cloudy
10:53 PM 77.0 °F - 64.0 °F 64% 30.12 in 10.0 mi NNE 6.9 mph 16.1 mph N/A   Scattered Clouds
11:53 PM 75.0 °F - 64.9 °F 71% 30.11 in 10.0 mi NNE 9.2 mph - 0.00 in   Mostly Cloudy